When you browse on this site, cookies collect data to enhance your experience and personalize the content and advertising you see.
Visit our Privacy Policy to learn more. By continuing to use the site, you agree to this use of cookies and data.

Meteo pe oră la Podgajcy

Astăzi, 4 Iulie, Sâmbătă

Timp Temperatura Precipitaţii Vânt Presiune Umiditate
00:00 +18°C° 0 mm 3 m/s 728 mmHg 96%
01:00 +18°C° 0 mm 3 m/s 728 mmHg 96%
02:00 +17°C° 0 mm 3 m/s 728 mmHg 97%
03:00 +17°C° 0 mm 3 m/s 728 mmHg 97%
04:00 +17°C° 0 mm 2 m/s 728 mmHg 97%
05:00 +17°C° 0 mm 2 m/s 729 mmHg 97%
06:00 +18°C° 0 mm 2 m/s 729 mmHg 95%
07:00 +19°C° 0 mm 2 m/s 729 mmHg 93%
08:00 +20°C° 0 mm 3 m/s 730 mmHg 90%
09:00 +21°C° 0.1 mm 3 m/s 730 mmHg 86%
10:00 +22°C° 0.1 mm 3 m/s 730 mmHg 81%
11:00 +24°C° 0.1 mm 3 m/s 730 mmHg 77%
12:00 +24°C° 0.3 mm 3 m/s 730 mmHg 76%
13:00 +24°C° 0.3 mm 3 m/s 730 mmHg 76%
14:00 +24°C° 0.3 mm 3 m/s 730 mmHg 76%
15:00 +24°C° 0.3 mm 3 m/s 730 mmHg 77%
16:00 +24°C° 0.3 mm 3 m/s 729 mmHg 78%
17:00 +24°C° 0.3 mm 3 m/s 729 mmHg 78%
18:00 +22°C° 0.1 mm 3 m/s 729 mmHg 82%
19:00 +21°C° 0.1 mm 2 m/s 729 mmHg 85%
20:00 +20°C° 0.1 mm 2 m/s 729 mmHg 89%
21:00 +19°C° 0.1 mm 2 m/s 729 mmHg 91%
22:00 +18°C° 0.1 mm 2 m/s 729 mmHg 92%
23:00 +17°C° 0.1 mm 2 m/s 729 mmHg 93%

Mâine, 5 Iulie, Duminică

Timp Temperatura Precipitaţii Vânt Presiune Umiditate
00:00 +17°C° 0 mm 2 m/s 729 mmHg 94%
01:00 +17°C° 0 mm 2 m/s 729 mmHg 94%
02:00 +16°C° 0 mm 2 m/s 729 mmHg 94%
03:00 +16°C° 0 mm 1 m/s 729 mmHg 94%
04:00 +16°C° 0 mm 1 m/s 729 mmHg 94%
05:00 +16°C° 0 mm 1 m/s 729 mmHg 95%
06:00 +18°C° 0 mm 1 m/s 729 mmHg 91%
07:00 +20°C° 0 mm 1 m/s 729 mmHg 87%
08:00 +21°C° 0 mm 1 m/s 730 mmHg 83%
09:00 +22°C° 0 mm 1 m/s 730 mmHg 79%
10:00 +23°C° 0 mm 2 m/s 730 mmHg 74%
11:00 +24°C° 0 mm 2 m/s 730 mmHg 69%
12:00 +25°C° 0 mm 2 m/s 730 mmHg 69%
13:00 +25°C° 0 mm 2 m/s 730 mmHg 68%
14:00 +25°C° 0 mm 2 m/s 729 mmHg 68%
15:00 +25°C° 0 mm 2 m/s 729 mmHg 68%
16:00 +25°C° 0 mm 1 m/s 729 mmHg 69%
17:00 +25°C° 0 mm 1 m/s 729 mmHg 69%
18:00 +24°C° 0 mm 1 m/s 729 mmHg 73%
19:00 +23°C° 0 mm 1 m/s 728 mmHg 77%
20:00 +21°C° 0 mm 1 m/s 728 mmHg 81%
21:00 +21°C° 0 mm 1 m/s 728 mmHg 83%
22:00 +20°C° 0 mm 1 m/s 728 mmHg 85%
23:00 +19°C° 0 mm 1 m/s 729 mmHg 87%

Poimâine, 6 Iulie, Luni

Timp Temperatura Precipitaţii Vânt Presiune Umiditate
00:00 +19°C° 0 mm 1 m/s 728 mmHg 88%
01:00 +18°C° 0 mm 1 m/s 728 mmHg 89%
02:00 +18°C° 0 mm 1 m/s 728 mmHg 89%
03:00 +18°C° 0 mm 1 m/s 728 mmHg 90%
04:00 +18°C° 0 mm 1 m/s 727 mmHg 91%
05:00 +18°C° 0 mm 1 m/s 727 mmHg 92%
06:00 +19°C° 0 mm 1 m/s 727 mmHg 89%
07:00 +20°C° 0 mm 2 m/s 727 mmHg 86%
08:00 +23°C° 0 mm 2 m/s 727 mmHg 83%
09:00 +24°C° 0 mm 2 m/s 727 mmHg 80%
10:00 +25°C° 0 mm 2 m/s 727 mmHg 77%
11:00 +26°C° 0 mm 2 m/s 727 mmHg 74%
12:00 +26°C° 0 mm 2 m/s 726 mmHg 72%
13:00 +26°C° 0 mm 2 m/s 726 mmHg 69%
14:00 +27°C° 0 mm 2 m/s 725 mmHg 67%
15:00 +27°C° 0 mm 2 m/s 725 mmHg 68%
16:00 +27°C° 0 mm 2 m/s 725 mmHg 68%
17:00 +27°C° 0 mm 2 m/s 724 mmHg 68%
18:00 +26°C° 0.2 mm 2 m/s 724 mmHg 74%
19:00 +24°C° 0.2 mm 1 m/s 724 mmHg 79%
20:00 +23°C° 0.2 mm 1 m/s 724 mmHg 85%
21:00 +22°C° 0.7 mm 1 m/s 724 mmHg 86%
22:00 +21°C° 0.7 mm 1 m/s 724 mmHg 88%
23:00 +21°C° 0.7 mm 1 m/s 724 mmHg 90%

7 Iulie, Marţi

Timp Temperatura Precipitaţii Vânt Presiune Umiditate
00:00 +20°C° 0.9 mm 1 m/s 724 mmHg 91%
01:00 +20°C° 0.9 mm 1 m/s 724 mmHg 93%
02:00 +19°C° 0.9 mm 1 m/s 724 mmHg 94%
03:00 +18°C° 1.4 mm 3 m/s 724 mmHg 94%
04:00 +18°C° 1.4 mm 4 m/s 724 mmHg 95%
05:00 +16°C° 1.4 mm 5 m/s 724 mmHg 95%
06:00 +16°C° 2.5 mm 5 m/s 725 mmHg 95%
07:00 +15°C° 2.5 mm 5 m/s 725 mmHg 94%
08:00 +15°C° 2.5 mm 5 m/s 725 mmHg 93%
09:00 +14°C° 1.2 mm 5 m/s 726 mmHg 92%
10:00 +14°C° 1.2 mm 5 m/s 726 mmHg 92%
11:00 +13°C° 1.2 mm 5 m/s 726 mmHg 91%
12:00 +13°C° 0.7 mm 6 m/s 726 mmHg 91%
13:00 +13°C° 0.7 mm 6 m/s 726 mmHg 90%
14:00 +11°C° 0.7 mm 6 m/s 727 mmHg 90%
15:00 +11°C° 0.1 mm 6 m/s 727 mmHg 90%
16:00 +11°C° 0.1 mm 6 m/s 727 mmHg 91%
17:00 +10°C° 0.1 mm 5 m/s 727 mmHg 91%
18:00 +10°C° 0.2 mm 5 m/s 727 mmHg 92%
19:00 +10°C° 0.2 mm 5 m/s 727 mmHg 93%
20:00 +10°C° 0.2 mm 5 m/s 728 mmHg 95%
21:00 +10°C° 0.6 mm 5 m/s 728 mmHg 95%
22:00 +10°C° 0.6 mm 5 m/s 728 mmHg 96%
23:00 +10°C° 0.6 mm 5 m/s 729 mmHg 96%

8 Iulie, Miercuri

Timp Temperatura Precipitaţii Vânt Presiune Umiditate
00:00 +10°C° 0.1 mm 5 m/s 729 mmHg 96%
01:00 +9°C° 0.1 mm 5 m/s 729 mmHg 95%
02:00 +9°C° 0.1 mm 5 m/s 729 mmHg 95%
03:00 +9°C° 0 mm 5 m/s 729 mmHg 95%
04:00 +8°C° 0 mm 5 m/s 729 mmHg 95%
05:00 +8°C° 0 mm 5 m/s 729 mmHg 94%
06:00 +9°C° 0 mm 5 m/s 730 mmHg 91%
07:00 +10°C° 0 mm 5 m/s 730 mmHg 88%
08:00 +12°C° 0 mm 5 m/s 730 mmHg 85%
09:00 +13°C° 0.1 mm 5 m/s 730 mmHg 80%
10:00 +15°C° 0.1 mm 5 m/s 731 mmHg 75%
11:00 +16°C° 0.1 mm 5 m/s 731 mmHg 70%
12:00 +16°C° 0.1 mm 5 m/s 731 mmHg 69%
13:00 +17°C° 0.1 mm 6 m/s 731 mmHg 68%
14:00 +17°C° 0.1 mm 6 m/s 731 mmHg 67%
15:00 +17°C° 0.1 mm 6 m/s 731 mmHg 68%
16:00 +17°C° 0.1 mm 5 m/s 731 mmHg 69%
17:00 +17°C° 0.1 mm 5 m/s 731 mmHg 70%
18:00 +17°C° 0 mm 4 m/s 731 mmHg 75%
19:00 +16°C° 0 mm 3 m/s 731 mmHg 79%
20:00 +15°C° 0 mm 2 m/s 731 mmHg 84%
21:00 +14°C° 0 mm 2 m/s 731 mmHg 85%
22:00 +13°C° 0 mm 2 m/s 731 mmHg 86%
23:00 +12°C° 0 mm 2 m/s 731 mmHg 87%

9 Iulie, Joi

Timp Temperatura Precipitaţii Vânt Presiune Umiditate
00:00 +12°C° 0 mm 2 m/s 731 mmHg 88%
01:00 +10°C° 0 mm 2 m/s 731 mmHg 89%
02:00 +10°C° 0 mm 2 m/s 731 mmHg 90%
03:00 +10°C° 0 mm 2 m/s 731 mmHg 90%
04:00 +10°C° 0 mm 2 m/s 731 mmHg 90%
05:00 +11°C° 0 mm 1 m/s 731 mmHg 89%
06:00 +13°C° 0 mm 2 m/s 731 mmHg 85%
07:00 +15°C° 0 mm 2 m/s 732 mmHg 81%
08:00 +16°C° 0 mm 2 m/s 732 mmHg 77%
09:00 +18°C° 0 mm 2 m/s 732 mmHg 73%
10:00 +19°C° 0 mm 2 m/s 732 mmHg 69%
11:00 +21°C° 0 mm 3 m/s 732 mmHg 66%
12:00 +21°C° 0 mm 2 m/s 732 mmHg 64%
13:00 +23°C° 0 mm 2 m/s 731 mmHg 62%
14:00 +23°C° 0 mm 2 m/s 731 mmHg 60%
15:00 +24°C° 0 mm 2 m/s 731 mmHg 60%
16:00 +24°C° 0 mm 1 m/s 731 mmHg 61%
17:00 +24°C° 0 mm 1 m/s 731 mmHg 61%
18:00 +22°C° 0 mm 1 m/s 730 mmHg 66%
19:00 +21°C° 0 mm 1 m/s 730 mmHg 71%
20:00 +18°C° 0 mm 2 m/s 730 mmHg 77%
21:00 +18°C° 0 mm 2 m/s 730 mmHg 79%
22:00 +17°C° 0 mm 2 m/s 730 mmHg 81%
23:00 +16°C° 0 mm 2 m/s 730 mmHg 83%
Arată mai mult